Baltimore, MD

10:52 AM EST on February 07, 2016 (GMT -0500)
Baltimore-Washington International

Weather History for KBWI - February, 2013

Change the Weather History Date:

Friday, February 22, 2013

  Actual Average Record
Temperature  
Mean Temperature 31 °F 37 °F  
Max Temperature 33 °F 47 °F 74 °F (1874)
Min Temperature 28 °F 28 °F 7 °F (1963)
Degree Days  
Heating Degree Days 34 28  
Month to date heating degree days 687 657  
Since 1 July heating degree days 3146 3433  
Cooling Degree Days 0 0  
Month to date cooling degree days 0 0  
Year to date cooling degree days 0 0  
Moisture  
Dew Point 23 °F    
Average Humidity 77    
Maximum Humidity 100    
Minimum Humidity 53    
Precipitation  
Precipitation 0.03 in 0.11 in 2.30 in (2003)
Month to date precipitation 1.24 2.27  
Year to date precipitation 4.88 5.32  
Snow  
Snow T in 0.20 in 4.00 in (1987)
Month to date snowfall 0.5 6.7  
Since 1 July snowfall 4.8 16.9  
Snow Depth 0.00 in    
Sea Level Pressure  
Sea Level Pressure 30.30 in    
Wind  
Wind Speed 4 mph (East)    
Max Wind Speed 14 mph    
Max Gust Speed 18 mph    
Visibility 9 miles    
Events Rain , Snow    
T = Trace of Precipitation, MM = Missing Value Source: NWS Daily Summary

Daily Weather History Graph

Daily Weather History Graph

Search for Another Location

Airport or City:

Trip Planner

Search our weather history database for the weather conditions in past years. The results will help you decide how hot, cold, wet, or windy it might be!

Date:

Astronomy

Feb. 22, 2013 Rise Set
Actual Time 6:48 AM EST 5:51 PM EST
Civil Twilight 6:21 AM EST 6:18 PM EST
Nautical Twilight 5:50 AM EST 6:50 PM EST
Astronomical Twilight 5:19 AM EST 7:21 PM EST
Moon 3:02 PM EST (2/22) 4:31 AM EST (2/22)
Length of Visible Light 11h 57m
Length of Day
11h 03m
Waxing Gibbous, 90% of the Moon is Illuminated
Feb 22
Waxing Gibbous
Feb 25
Full
Mar 4
Last Quarter
Mar 11
New
Mar 19
First Quarter

Hourly Weather History & Observations

Time (EST) Temp. Windchill Dew Point Humidity Pressure Visibility Wind Dir Wind Speed Gust Speed Precip Events Conditions
12:54 AM 30.2 °F 24.3 °F 15.8 °F 55% 30.32 in 10.0 mi North 5.8 mph - N/A   Overcast
1:54 AM 30.0 °F 24.1 °F 16.0 °F 56% 30.30 in 10.0 mi North 5.8 mph - N/A   Overcast
2:54 AM 30.0 °F 24.1 °F 17.1 °F 59% 30.33 in 10.0 mi North 5.8 mph - N/A   Overcast
3:54 AM 30.0 °F 25.2 °F 17.1 °F 59% 30.35 in 10.0 mi Variable 4.6 mph - N/A   Overcast
4:54 AM 28.9 °F - 17.1 °F 61% 30.38 in 10.0 mi Calm Calm - N/A   Overcast
5:54 AM 30.0 °F 26.5 °F 17.1 °F 59% 30.38 in 10.0 mi North 3.5 mph - N/A   Overcast
6:54 AM 30.0 °F 23.2 °F 18.0 °F 61% 30.36 in 10.0 mi NE 6.9 mph - N/A   Overcast
7:54 AM 30.0 °F 21.7 °F 17.1 °F 59% 30.39 in 10.0 mi NE 9.2 mph - N/A   Overcast
8:54 AM 30.0 °F 21.1 °F 18.0 °F 61% 30.38 in 10.0 mi ENE 10.4 mph - N/A   Overcast
9:54 AM 30.0 °F 20.5 °F 19.0 °F 64% 30.35 in 10.0 mi East 11.5 mph - N/A   Overcast
10:54 AM 30.9 °F 22.8 °F 19.0 °F 61% 30.35 in 10.0 mi East 9.2 mph - N/A   Overcast
11:54 AM 32.0 °F 27.5 °F 19.9 °F 61% 30.34 in 10.0 mi ESE 4.6 mph - N/A   Overcast
12:54 PM 32.0 °F 27.5 °F 19.9 °F 61% 30.33 in 10.0 mi SE 4.6 mph - 0.00 in Snow Light Snow
1:54 PM 33.1 °F - 21.9 °F 64% 30.31 in 10.0 mi Calm Calm - 0.00 in Rain , Snow Light Rain
2:21 PM 33.8 °F 28.6 °F 21.2 °F 60% 30.30 in 10.0 mi SE 5.8 mph - 0.00 in   Overcast
2:54 PM 33.1 °F 26.9 °F 23.0 °F 66% 30.30 in 10.0 mi SSE 6.9 mph - 0.00 in Rain Light Rain
3:54 PM 32.0 °F 27.5 °F 23.0 °F 69% 30.29 in 10.0 mi SE 4.6 mph - 0.00 in   Overcast
4:54 PM 32.0 °F 28.7 °F 26.1 °F 79% 30.29 in 10.0 mi SSE 3.5 mph - 0.00 in Rain Light Rain
5:54 PM 30.9 °F 27.5 °F 27.0 °F 85% 30.28 in 10.0 mi SE 3.5 mph - 0.01 in Rain Light Freezing Rain
6:51 PM 32.0 °F - 28.4 °F 87% 30.28 in 10.0 mi Calm Calm - 0.01 in Rain Light Freezing Rain
6:54 PM 32.0 °F - 27.0 °F 82% 30.28 in 10.0 mi Calm Calm - 0.01 in Rain Light Freezing Rain
6:58 PM 32.0 °F - 26.6 °F 80% 30.27 in 10.0 mi Calm Calm - 0.00 in Rain Light Freezing Rain
7:35 PM 32.0 °F - 28.4 °F 87% 30.27 in 10.0 mi Calm Calm - 0.01 in   Overcast
7:54 PM 32.0 °F - 28.0 °F 85% 30.28 in 10.0 mi Calm Calm - 0.01 in   Overcast
8:54 PM 32.0 °F - 28.9 °F 88% 30.27 in 9.0 mi Calm Calm - N/A   Overcast
9:35 PM 32.0 °F - 28.4 °F 87% 30.26 in 10.0 mi Calm Calm - N/A   Overcast
9:52 PM 32.0 °F - 28.4 °F 87% 30.25 in 6.0 mi Calm Calm - 0.00 in   Light Freezing Drizzle
9:54 PM 32.0 °F - 28.9 °F 88% 30.26 in 6.0 mi Calm Calm - 0.00 in   Light Freezing Drizzle
10:47 PM 30.2 °F - 30.2 °F 100% 30.24 in 4.0 mi Calm Calm - 0.00 in   Light Freezing Drizzle
10:54 PM 30.9 °F - 30.0 °F 96% 30.24 in 4.0 mi Calm Calm - 0.00 in   Light Freezing Drizzle
11:22 PM 32.0 °F - 30.2 °F 93% 30.23 in 4.0 mi Calm Calm - 0.00 in   Overcast
11:37 PM 32.0 °F - 30.2 °F 93% 30.24 in 4.0 mi Calm Calm - 0.00 in   Overcast
11:45 PM 32.0 °F - 30.2 °F 93% 30.23 in 4.0 mi Calm Calm - 0.00 in   Overcast
11:54 PM 32.0 °F - 30.0 °F 92% 30.23 in 3.0 mi Calm Calm - 0.00 in   Light Drizzle